Overview Statistics Trail Chart Weather Telemetry Raw packets
 

This is the latest recevied weather packets stored in our database for station/object KE5QKR. If no packets are shown the sender has not sent any weather packets the latest 10 day(s).

<< 48 49 50 51 52 53 54 >>
Time Temp. Humidity Pressure Rain* Wind** Luminosity Snow
1777662713 16.67° C 95% 1008.9 hPa 0 mm - 41 W/m² -
1777662409 16.67° C 95% 1009 hPa 0 mm - 48 W/m² -
1777662104 16.67° C 95% 1008.6 hPa 0 mm - 47 W/m² -
1777661800 17.22° C 96% 1009.1 hPa 0 mm - 48 W/m² -
1777661496 16.67° C 95% 1009.1 hPa 0 mm - 67 W/m² -
1777661193 17.22° C 95% 1009.5 hPa 0 mm - 77 W/m² -
1777660887 17.22° C 95% 1009.9 hPa 0 mm - 143 W/m² -
1777660584 17.22° C 96% 1009.8 hPa 0 mm - 265 W/m² -
1777660281 17.22° C 97% 1009.7 hPa 0 mm - 202 W/m² -
1777659977 17.22° C 97% 1009.7 hPa 0 mm - 227 W/m² -
1777659674 17.22° C 96% 1009.9 hPa 1.27 mm - 225 W/m² -
1777659372 17.22° C 97% 1009.9 hPa 1.27 mm - 281 W/m² -
1777659068 17.22° C 96% 1010.7 hPa 0 mm - 154 W/m² -
1777658767 17.22° C 96% 1011 hPa 0 mm - 118 W/m² -
1777658462 17.22° C 96% 1010.8 hPa 0 mm - 126 W/m² -
1777658159 17.22° C 96% 1010.9 hPa 0 mm - 175 W/m² -
1777657856 17.22° C 96% 1010.8 hPa 0 mm - 217 W/m² -
1777657553 17.22° C 97% 1010.9 hPa 0 mm - 188 W/m² -
1777657250 17.22° C 98% 1010.7 hPa 0 mm - 175 W/m² -
1777656947 17.22° C 98% 1010.8 hPa 0 mm - 200 W/m² -
1777656644 17.22° C 98% 1011.3 hPa 0 mm - 229 W/m² -
1777656339 17.22° C 99% 1011.4 hPa 0 mm - 208 W/m² -
1777656035 16.67° C 99% 1011.5 hPa 0 mm - 133 W/m² -
1777655732 16.67° C 99% 1011.4 hPa 0 mm - 65 W/m² -
1777655428 16.67° C 99% 1011.6 hPa 0 mm - 60 W/m² -

* Rain latest hour (hover to see other rain measurements)
** Current wind speed in m/s (hover to see current wind gust speed)